AirNav  
 
 349 users online  

25FD Ritz Carlton Grande Lakes Seaplane Base
Orlando, Florida, USA

GOING TO ORLANDO?


FAA INFORMATION EFFECTIVE 29 MARCH 2018

Location

FAA Identifier: 25FD
Lat/Long: 28-23-57.7700N / 081-26-08.9300W
28-23.962833N / 081-26.148833W
28.3993806 / -81.4358139
(estimated)
Elevation: 80 ft. / 24 m (estimated)
From city: 10 miles SSW of ORLANDO, FL
Time zone: UTC +0 (year round; does not observe DST)
Zip code: 32837

Seaplane Base Operations

Seaplane Base use: Private use. Permission required prior to landing
Activation date: 11/2017
Control tower: no
ARTCC: JACKSONVILLE CENTER
FSS: SAINT PETERSBURG FLIGHT SERVICE STATION
Attendance: 
Segmented circle: no

Seaplane Base Communications

WX AWOS-3PT at ISM (7 nm S): 128.775 (407-847-0533)
WX ASOS at MCO (7 nm E): PHONE 407-855-5235
WX ASOS at ORL (10 nm NE): PHONE 407-658-6753

Nearby radio navigation aids

VOR radial/distance  VOR name  Freq  Var
ORLr212/10.1ORLANDO VORTAC112.2000E
LALr050/39.4LAKELAND VORTAC116.0001E

 
NDB name  Hdg/Dist  Freq  Var  ID
HERNY187/6.422106WOR --- .-.
LEESBURG146/31.933504WLEE .-.. . .

Seaplane Base Services

Runway Information

Runway 16/34

Dimensions: 2000 x 75 ft. / 610 x 23 m
Surface: water
RUNWAY 16  RUNWAY 34
Traffic pattern: leftleft

Seaplane Base Ownership and Management from official FAA records

Ownership: Privately-owned
Owner: RITZ CARLTON GRAND LAKES
4048 CENTRAL FLORIDA PKWY
ORLANDO, FL 32837
Phone 407-393-4902
Manager: NATHAN STITH
4048 CENTRAL FLORIDA PKWY
ORLANDO, FL 32837
Phone 407-393-4902

Instrument Procedures

There are no published instrument procedures at 25FD.

Some nearby airports with instrument procedures:

KISM - Kissimmee Gateway Airport (7 nm S)
KMCO - Orlando International Airport (7 nm E)
KORL - Executive Airport (10 nm NE)
X04 - Orlando Apopka Airport (20 nm NW)
KSFB - Orlando Sanford International Airport (25 nm NE)
 
Loc | Ops | Rwys | IFR | FBO | Links
Com | Nav | Svcs | Stats | Notes

AirNav Hotels Sweepstakes
 
Aerial photo
No photo
 
Airport distance calculator
Flying to Ritz Carlton Grande Lakes Seaplane Base? Find the distance to fly.

From to 25FD

Sunrise and sunset
Times for 26-Apr-2018
 Zulu (UTC)
Morning civil twilight10:26
Sunrise10:51
Sunset23:57
Evening civil twilight00:21

Current date and time
Zulu (UTC)  26-Apr-2018 09:42:51
 
METAR
KMCO 
6nm E 
260853Z 23004KT 10SM CLR 15/14 A2991 RMK AO2 SLP126 T01500144 56004
KISM 
7nm S 
260856Z AUTO 26003KT 10SM CLR 14/13 A2992 RMK AO2 SLP132 T01440133 56005
KORL 
11nm NE 
260853Z AUTO 26004KT 10SM CLR 17/16 A2990 RMK AO2 SLP128 T01720156 56004
TAF
KMCO 
6nm E 
260524Z 2606/2712 27004KT P6SM SKC FM261400 25008KT P6SM SCT040 BKN250 FM270000 25005KT P6SM SKC
KISM 
7nm S 
260524Z 2606/2706 27004KT P6SM SKC FM261400 25008KT P6SM SCT040 BKN250 FM270000 25005KT P6SM SKC
NOTAMs
Click for the latest NOTAMs
NOTAMs are issued by the DoD/FAA and will open in a separate window not controlled by AirNav.

 

 
 

Would you like to see your business listed on this page?

 If your business provides an interesting product or service to pilots, flight crews, aircraft, or users of the Ritz Carlton Grande Lakes Seaplane Base, you should consider listing it here.  To start the listing process, click on the button below
 
Add a business
 

Other Pages about Ritz Carlton Grande Lakes Seaplane Base

Update a link
 
Copyright © AirNav, LLC. All rights reserved. Privacy Policy  Contact